This demonstration page uses our WeatherBlox Daily Observations layout. Learn more.

Left ArrowRight Arrow

34.02893, -84.19858

Hourly Observations for February 25, 2022

Temp ( °F °C ) Dew Point ( °F °C ) Humidity (%) Winds ( mph kmh ) Pressure ( in mb ) Visibility ( mi km ) Precip ( " mm )
12:53 am 00:53 Clear 63 17.2 57 13.9 81 81 S 7 11 30.13 1020 10 16 0.00 0.00
1:53 am 01:53 Clear 64 17.8 58 14.4 81 81 S 12 19 30.11 1020 10 16 0.00 0.00
2:53 am 02:53 Clear 64 17.8 59 15 84 84 SSW 10 17 30.11 1020 10 16 0.00 0.00
3:53 am 03:53 Clear 63 17.2 59 15 87 87 SW 8 13 30.11 1020 10 16 0.00 0.00
4:53 am 04:53 Mostly Cloudy 63 17.2 59 15 87 87 SW 10 17 30.11 1020 10 16 0.00 0.00
5:53 am 05:53 Mostly Cloudy 63 17.2 60 15.6 90 90 WSW 15 24 30.12 1020 10 16 0.00 0.00
6:01 am 06:01 Mostly Cloudy 63 17.2 60 15.6 90 90 WSW 17 28 30.14 1021 10 16 0.00 0.00
6:26 am 06:26 Cloudy 62 16.7 60 15.6 93 93 SW 10 17 30.15 1021 10 16 0.00 0.00
6:48 am 06:48 Cloudy 63 17 61 16 94 94 SW 10 17 30.14 1021 10 16 0.00 0.00
6:53 am 06:53 Cloudy 62 16.7 60 15.6 93 93 SSW 10 17 30.14 1021 10 16 0.00 0.00
7:02 am 07:02 Cloudy 62 16.7 60 15.6 93 93 SW 13 20 30.15 1021 10 16 0.00 0.00
7:31 am 07:31 Cloudy 63 17.2 60 15.6 90 90 SW 9 15 30.15 1021 10 16 0.00 0.00
7:53 am 07:53 Cloudy 63 17.2 60 15.6 90 90 SW 13 20 30.15 1021 10 16 0.00 0.00
8:20 am 08:20 Cloudy with Light Rain 62 16.7 60 15.6 93 93 W 13 20 30.20 1023 2 3 0.00 0.00
8:39 am 08:39 Cloudy with Mist and Fog 61 16.1 59 15 93 93 NW 7 11 30.22 1023 3 5 0.00 0.00
8:53 am 08:53 Cloudy with Light Rain 59 15 56 13.3 90 90 WNW 14 22 30.22 1023 7 11 0.00 0.00
9:00 am 09:00 Cloudy with Mist and Fog 59 15 56 13.3 90 90 WNW 15 24 30.23 1024 8 13 0.00 0.00
9:08 am 09:08 Cloudy with Mist and Fog 59 15 56 13.3 90 90 WNW 15 24 30.23 1024 5 8 0.00 0.00
9:46 am 09:46 Cloudy with Light Rain 58 14.4 56 13.3 93 93 WNW 9 15 30.24 1024 7 11 0.01 0.25
9:53 am 09:53 Cloudy with Light Rain 58 14.4 55 12.8 90 90 W 10 17 30.23 1024 7 11 0.01 0.25
10:46 am 10:46 Cloudy 59 15 54 12.2 83 83 W 10 17 30.24 1024 10 16 0.00 0.00
10:53 am 10:53 Cloudy 59 15 54 12.2 83 83 WNW 9 15 30.24 1024 10 16 0.00 0.00
11:53 am 11:53 Cloudy 58 14.4 53 11.7 84 84 WNW 9 15 30.26 1025 10 16 0.00 0.00
12:06 pm 12:06 Cloudy 57 13.9 52 11.1 83 83 WNW 13 20 30.28 1025 10 16 0.00 0.00
12:53 pm 12:53 Cloudy 56 13.3 50 10 81 81 WNW 8 13 30.26 1025 10 16 0.00 0.00
1:10 pm 13:10 Cloudy 57 13.9 48 8.9 72 72 WNW 12 19 30.26 1025 10 16 0.00 0.00
1:53 pm 13:53 Cloudy 58 14.4 46 7.8 65 65 NW 13 20 30.24 1024 10 16 0.00 0.00
2:53 pm 14:53 Partly Cloudy 61 16.1 45 7.2 56 56 NW 12 19 30.23 1024 10 16 0.00 0.00
3:53 pm 15:53 Sunny 61 16.1 44 6.7 54 54 NNW 17 28 30.24 1024 10 16 0.00 0.00
4:53 pm 16:53 Sunny 60 15.6 43 6.1 53 53 NW 10 17 30.25 1024 10 16 0.00 0.00
5:53 pm 17:53 Sunny 56 13.3 40 4.4 55 55 NW 12 19 30.27 1025 10 16 0.00 0.00
6:53 pm 18:53 Clear 52 11.1 39 3.9 61 61 NW 9 15 30.29 1026 10 16 0.00 0.00
7:53 pm 19:53 Clear 49 9.4 37 2.8 64 64 NW 10 17 30.30 1026 10 16 0.00 0.00
8:53 pm 20:53 Clear 47 8.3 35 1.7 63 63 NNW 10 17 30.31 1026 10 16 0.00 0.00
9:53 pm 21:53 Clear 46 7.8 35 1.7 66 66 NW 10 17 30.33 1027 10 16 0.00 0.00
10:53 pm 22:53 Clear 45 7.2 35 1.7 68 68 NW 8 13 30.33 1027 10 16 0.00 0.00
11:53 pm 23:53 Clear 43 6.1 34 1.1 71 71 WNW 7 11 30.33 1027 10 16 0.00 0.00

Powered by AerisWeather